Princeton, MN

4:31 AM CST on December 15, 2019 (GMT -0600)
Princeton Municipal

Weather History for KPNM - August, 2019

Change the Weather History Date:

Monday, August 19, 2019

  Actual Average Record
Temperature  
Mean Temperature 63 °F -  
Max Temperature 80 °F 76 °F 89 °F (2003)
Min Temperature 46 °F 54 °F 39 °F (2004)
Degree Days  
Heating Degree Days 2    
Growing Degree Days 13 (Base 50)    
Moisture  
Dew Point 55 °F    
Average Humidity 73    
Maximum Humidity 100    
Minimum Humidity 42    
Precipitation  
Precipitation 0.00 in - - ()
Sea Level Pressure  
Sea Level Pressure 29.98 in    
Wind  
Wind Speed 2 mph (South)    
Max Wind Speed 12 mph    
Max Gust Speed -    
Visibility 9 miles    
Events Fog    
Averages and records for this station are not official NWS values.
T = Trace of Precipitation, MM = Missing Value Source: NWS Daily Summary

Daily Weather History Graph

Daily Weather History Graph

Search for Another Location

Airport or City:

Astronomy

Aug. 19, 2019 Rise Set
Actual Time 6:19 AM CDT 8:15 PM CDT
Civil Twilight 5:47 AM CDT 8:47 PM CDT
Nautical Twilight 5:08 AM CDT 9:26 PM CDT
Astronomical Twilight 4:25 AM CDT 10:09 PM CDT
Moon 10:26 PM CDT (8/19) 10:11 AM CDT (8/19)
Length of Visible Light 14h 59m
Length of Day
13h 56m
Waning Gibbous, 85% of the Moon is Illuminated
Aug 19
Waning Gibbous
Aug 23
Last Quarter
Aug 30
New
Sep 5
First Quarter
Sep 13
Full

Hourly Weather History & Observations

Time (CDT) Temp. Heat Index Dew Point Humidity Pressure Visibility Wind Dir Wind Speed Gust Speed Precip Events Conditions
12:19 AM 51.8 °F - 48.2 °F 88% 29.95 in 10.0 mi Calm Calm - N/A   Clear
12:37 AM 50.0 °F - 48.2 °F 94% 29.95 in 2.0 mi Calm Calm - N/A   Clear
12:55 AM 51.8 °F - 50.0 °F 94% 29.95 in 10.0 mi Calm Calm - N/A   Clear
12:56 AM 51.8 °F - 50.0 °F 94% 29.95 in 10.0 mi Calm Calm - N/A   Clear
1:15 AM 50.0 °F - 48.2 °F 94% 29.96 in 10.0 mi Calm Calm - N/A   Clear
1:35 AM 50.0 °F - 48.2 °F 94% 29.96 in 10.0 mi Calm Calm - N/A   Clear
1:58 AM 50.0 °F - 48.2 °F 94% 29.96 in 10.0 mi Calm Calm - N/A   Clear
2:15 AM 48.2 °F - 48.2 °F 100% 29.96 in 10.0 mi Calm Calm - N/A   Clear
2:35 AM 48.2 °F - 48.2 °F 100% 29.96 in 0.8 mi Calm Calm - N/A   Mist
2:36 AM 48.2 °F - 48.2 °F 100% 29.96 in 0.8 mi Calm Calm - N/A   Mist
2:55 AM 48.2 °F - 48.2 °F 100% 29.96 in 10.0 mi Calm Calm - N/A   Clear
3:19 AM 50.0 °F - 48.2 °F 94% 29.97 in 10.0 mi Calm Calm - N/A   Clear
3:37 AM 48.2 °F - 48.2 °F 100% 29.97 in 10.0 mi Calm Calm - N/A   Clear
3:55 AM 48.2 °F - 46.4 °F 93% 29.97 in 10.0 mi Calm Calm - N/A   Clear
3:56 AM 48.2 °F - 46.4 °F 93% 29.97 in 10.0 mi Calm Calm - N/A   Clear
4:15 AM 48.2 °F - 48.2 °F 100% 29.97 in 10.0 mi Calm Calm - N/A   Clear
4:16 AM 48.2 °F - 48.2 °F 100% 29.97 in 10.0 mi Calm Calm - N/A   Clear
4:35 AM 48.2 °F - 48.2 °F 100% 29.98 in 10.0 mi Calm Calm - N/A   Clear
4:58 AM 48.2 °F - 46.4 °F 93% 29.98 in 10.0 mi Calm Calm - N/A   Clear
5:16 AM 46.4 °F - 46.4 °F 100% 29.98 in 10.0 mi Calm Calm - N/A   Clear
5:35 AM 46.4 °F - 46.4 °F 100% 29.98 in 7.0 mi Calm Calm - N/A   Clear
5:36 AM 48.2 °F - 46.4 °F 93% 29.98 in 7.0 mi Calm Calm - N/A   Clear
5:55 AM 46.4 °F - 46.4 °F 100% 29.98 in 1.5 mi Calm Calm - N/A   Mostly Cloudy
6:19 AM 48.2 °F - 46.4 °F 93% 29.99 in 1.0 mi Calm Calm - N/A   Mostly Cloudy
6:37 AM 46.4 °F - 46.4 °F 100% 29.99 in 0.2 mi Calm Calm - N/A Fog Fog
6:55 AM 48.2 °F - 46.4 °F 93% 30.00 in 10.0 mi Calm Calm - N/A   Clear
6:56 AM 48.2 °F - 46.4 °F 93% 29.99 in 10.0 mi Calm Calm - N/A   Clear
7:15 AM 51.8 °F - 51.8 °F 100% 30.00 in 10.0 mi Calm Calm - N/A   Clear
7:35 AM 53.6 °F - 53.6 °F 100% 30.00 in 10.0 mi Calm Calm - N/A   Clear
7:57 AM 57.2 °F - 55.4 °F 94% 30.00 in 10.0 mi Calm Calm - N/A   Clear
8:16 AM 59.0 °F - 55.4 °F 88% 30.00 in 10.0 mi Calm Calm - N/A   Clear
8:35 AM 62.6 °F - 57.2 °F 82% 30.00 in 10.0 mi Calm Calm - N/A   Clear
8:55 AM 64.4 °F - 55.4 °F 73% 30.00 in 10.0 mi Calm Calm - N/A   Clear
8:56 AM 64.4 °F - 55.4 °F 73% 30.00 in 10.0 mi SW 4.6 mph - N/A   Clear
9:19 AM 66.2 °F - 57.2 °F 73% 30.00 in 10.0 mi SSW 4.6 mph - N/A   Clear
9:37 AM 68.0 °F - 55.4 °F 64% 30.00 in 10.0 mi SSW 5.8 mph - N/A   Clear
9:55 AM 69.8 °F - 55.4 °F 60% 30.00 in 10.0 mi South 5.8 mph - N/A   Clear
10:15 AM 71.6 °F - 53.6 °F 53% 30.00 in 10.0 mi SSW 11.5 mph - N/A   Clear
10:16 AM 71.6 °F - 53.6 °F 53% 30.00 in 10.0 mi SSW 11.5 mph - N/A   Clear
10:35 AM 71.6 °F - 55.4 °F 57% 30.00 in 10.0 mi SSW 9.2 mph - N/A   Clear
10:40 AM 71.6 °F - 53.6 °F 53% 30.01 in 10.0 mi SSW 8.1 mph - N/A   Clear
10:58 AM 73.4 °F - 55.4 °F 53% 30.01 in 10.0 mi SSW 6.9 mph - N/A   Clear
11:16 AM 73.4 °F - 55.4 °F 53% 30.00 in 10.0 mi SW 9.2 mph - N/A   Clear
11:35 AM 73.4 °F - 55.4 °F 53% 30.00 in 10.0 mi South 5.8 mph - N/A   Clear
11:36 AM 73.4 °F - 55.4 °F 53% 30.00 in 10.0 mi South 5.8 mph - N/A   Clear
11:55 AM 75.2 °F - 57.2 °F 53% 30.00 in 10.0 mi SSW 8.1 mph - N/A   Clear
11:56 AM 75.2 °F - 57.2 °F 53% 30.00 in 10.0 mi SSW 8.1 mph - N/A   Clear
12:19 PM 75.2 °F - 55.4 °F 50% 30.00 in 10.0 mi SW 6.9 mph - N/A   Clear
12:37 PM 77.0 °F - 55.4 °F 47% 30.00 in 10.0 mi South 4.6 mph - N/A   Clear
12:55 PM 78.8 °F - 55.4 °F 44% 30.00 in 10.0 mi SSW 4.6 mph - N/A   Clear
1:15 PM 78.8 °F - 57.2 °F 47% 29.99 in 10.0 mi South 5.8 mph - N/A   Clear
1:16 PM 78.8 °F - 57.2 °F 47% 29.99 in 10.0 mi SSE 5.8 mph - N/A   Clear
1:35 PM 78.8 °F - 57.2 °F 47% 29.99 in 10.0 mi SSW 4.6 mph - N/A   Clear
1:58 PM 80.6 °F 80.5 °F 55.4 °F 42% 29.99 in 10.0 mi South 6.9 mph - N/A   Clear
2:16 PM 80.6 °F 80.8 °F 57.2 °F 45% 29.98 in 10.0 mi SSW 8.1 mph - N/A   Clear
2:35 PM 80.6 °F 80.8 °F 57.2 °F 45% 29.98 in 10.0 mi South 6.9 mph - N/A   Clear
2:55 PM 80.6 °F 81.1 °F 59.0 °F 48% 29.97 in 10.0 mi South 6.9 mph - N/A   Clear
2:56 PM 80.6 °F 80.8 °F 57.2 °F 45% 29.97 in 10.0 mi South 6.9 mph - N/A   Clear
3:18 PM 80.6 °F 80.8 °F 57.2 °F 45% 29.96 in 10.0 mi SSW 5.8 mph - N/A   Clear
3:37 PM 80.6 °F 81.1 °F 59.0 °F 48% 29.96 in 10.0 mi South 8.1 mph - N/A   Clear
3:55 PM 80.6 °F 81.1 °F 59.0 °F 48% 29.97 in 10.0 mi South 4.6 mph - N/A   Clear
4:15 PM 80.6 °F 81.1 °F 59.0 °F 48% 29.97 in 10.0 mi SSW 8.1 mph - N/A   Clear
4:35 PM 80.6 °F 81.1 °F 59.0 °F 48% 29.96 in 10.0 mi SSW 6.9 mph - N/A   Clear
4:40 PM 80.6 °F 81.5 °F 60.8 °F 51% 29.96 in 10.0 mi SSW 9.2 mph - N/A   Clear
4:58 PM 80.6 °F 81.1 °F 59.0 °F 48% 29.96 in 10.0 mi SSW 6.9 mph - N/A   Clear
5:16 PM 80.6 °F 81.5 °F 60.8 °F 51% 29.96 in 10.0 mi South 6.9 mph - N/A   Clear
5:35 PM 80.6 °F 81.5 °F 60.8 °F 51% 29.96 in 10.0 mi SSW 6.9 mph - N/A   Clear
5:55 PM 80.6 °F 81.5 °F 60.8 °F 51% 29.96 in 10.0 mi South 5.8 mph - N/A   Clear
6:19 PM 78.8 °F - 62.6 °F 57% 29.96 in 10.0 mi South 5.8 mph - N/A   Clear
6:37 PM 78.8 °F - 62.6 °F 57% 29.95 in 10.0 mi South 6.9 mph - N/A   Clear
6:55 PM 78.8 °F - 60.8 °F 54% 29.95 in 10.0 mi South 8.1 mph - N/A   Clear
6:56 PM 78.8 °F - 60.8 °F 54% 29.95 in 10.0 mi South 6.9 mph - N/A   Clear
7:15 PM 77.0 °F - 62.6 °F 61% 29.95 in 10.0 mi South 4.6 mph - N/A   Clear
7:16 PM 77.0 °F - 62.6 °F 61% 29.95 in 10.0 mi South 4.6 mph - N/A   Clear
7:35 PM 75.2 °F - 62.6 °F 65% 29.96 in 10.0 mi Calm Calm - N/A   Clear
7:40 PM 75.2 °F - 62.6 °F 65% 29.96 in 10.0 mi SSE 3.5 mph - N/A   Clear
7:58 PM 73.4 °F - 62.6 °F 69% 29.96 in 10.0 mi SSE 3.5 mph - N/A   Clear
8:16 PM 71.6 °F - 62.6 °F 73% 29.96 in 10.0 mi SSE 3.5 mph - N/A   Clear
8:35 PM 71.6 °F - 62.6 °F 73% 29.96 in 10.0 mi Calm Calm - N/A   Clear
8:55 PM 69.8 °F - 62.6 °F 78% 29.97 in 10.0 mi Calm Calm - N/A   Clear
8:56 PM 69.8 °F - 62.6 °F 78% 29.97 in 10.0 mi Calm Calm - N/A   Clear
9:19 PM 68.0 °F - 62.6 °F 83% 29.98 in 10.0 mi Calm Calm - N/A   Clear
9:37 PM 66.2 °F - 62.6 °F 88% 29.98 in 10.0 mi Calm Calm - N/A   Clear
9:55 PM 66.2 °F - 62.6 °F 88% 29.99 in 10.0 mi Calm Calm - N/A   Clear
10:15 PM 66.2 °F - 62.6 °F 88% 29.99 in 10.0 mi Calm Calm - N/A   Clear
10:35 PM 66.2 °F - 62.6 °F 88% 29.99 in 10.0 mi Calm Calm - N/A   Clear
10:40 PM 66.2 °F - 62.6 °F 88% 29.99 in 10.0 mi Calm Calm - N/A   Clear
10:58 PM 66.2 °F - 62.6 °F 88% 29.99 in 10.0 mi Calm Calm - N/A   Clear
11:16 PM 64.4 °F - 62.6 °F 94% 29.99 in 10.0 mi Calm Calm - N/A   Clear
11:35 PM 64.4 °F - 62.6 °F 94% 29.99 in 10.0 mi Calm Calm - N/A   Clear
11:55 PM 62.6 °F - 62.6 °F 100% 29.99 in 10.0 mi Calm Calm - N/A   Clear